Flagstaff, AZ

2:34 PM MST on June 27, 2017 (GMT -0700)
Flagstaff Pulliam

Weather History for KFLG - February, 2012

Change the Weather History Date:

Tuesday, February 14, 2012

  Actual Average Record
Temperature  
Mean Temperature 28 °F 32 °F  
Max Temperature 34 °F 45 °F 66 °F (2014)
Min Temperature 21 °F 19 °F -15 °F (1949)
Degree Days  
Heating Degree Days 37 33  
Month to date heating degree days 456 473  
Since 1 July heating degree days 4192 4389  
Cooling Degree Days 0 0  
Month to date cooling degree days 0 0  
Year to date cooling degree days 0 0  
Moisture  
Dew Point 23 °F    
Average Humidity 72    
Maximum Humidity 100    
Minimum Humidity 43    
Precipitation  
Precipitation 0.31 in 0.07 in 2.37 in (1980)
Month to date precipitation 0.64 1.02  
Year to date precipitation 1.06 3.07  
Snow  
Snow 6.10 in 0.70 in 13.00 in (1954)
Month to date snowfall 9.7 10.9  
Since 1 July snowfall 59.9 63.2  
Snow Depth 2.00 in    
Sea Level Pressure  
Sea Level Pressure 29.80 in    
Wind  
Wind Speed 9 mph (SW)    
Max Wind Speed 29 mph    
Max Gust Speed 37 mph    
Visibility 6 miles    
Events Fog , Snow    
T = Trace of Precipitation, MM = Missing Value Source: NWS Daily Summary

Daily Weather History Graph

Daily Weather History Graph

Search for Another Location

Airport or City:

Trip Planner

Search our weather history database for the weather conditions in past years. The results will help you decide how hot, cold, wet, or windy it might be!

Date:

Astronomy

Feb. 14, 2012 Rise Set
Actual Time 7:14 AM MST 6:07 PM MST
Civil Twilight 6:48 AM MST 6:33 PM MST
Nautical Twilight 6:18 AM MST 7:03 PM MST
Astronomical Twilight 5:49 AM MST 7:33 PM MST
Moon 12:58 AM MST (2/14) 11:21 AM MST (2/14)
Length of Visible Light 11h 45m
Length of Day
10h 53m
Waning Gibbous, 49% of the Moon is Illuminated
Feb 14
Waning Gibbous
Feb 21
New
Feb 29
First Quarter
Mar 8
Full
Mar 14
Last Quarter

Hourly Weather History & Observations

Time (MST) Temp. Windchill Dew Point Humidity Pressure Visibility Wind Dir Wind Speed Gust Speed Precip Events Conditions
12:22 AM 32.0 °F 19.8 °F 28.4 °F 87% 29.76 in 9.0 mi SSW 20.7 mph 31.1 mph 0.03 in Snow Light Snow
12:42 AM 32.0 °F 18.9 °F 26.6 °F 80% 29.76 in 9.0 mi SSW 24.2 mph 36.8 mph 0.04 in   Overcast
12:57 AM 32.0 °F 20.8 °F 25.0 °F 75% 29.71 in 9.0 mi SSW 17.3 mph 34.5 mph 0.04 in Snow Light Snow
1:57 AM 30.9 °F 19.8 °F 25.0 °F 79% 29.70 in 10.0 mi SSW 16.1 mph 23.0 mph N/A   Overcast
2:20 AM 30.2 °F 18.1 °F 26.6 °F 86% 29.74 in 10.0 mi SSW 18.4 mph 23.0 mph N/A   Overcast
2:57 AM 30.0 °F 18.7 °F 26.1 °F 85% 29.70 in 4.0 mi SSW 16.1 mph 28.8 mph 0.02 in Snow Light Snow
3:34 AM 28.4 °F 17.5 °F 24.8 °F 86% 29.73 in 1.5 mi SW 13.8 mph 21.9 mph 0.02 in Snow Light Snow
3:38 AM 28.4 °F 19.1 °F 26.6 °F 93% 29.73 in 0.8 mi SW 10.4 mph 21.9 mph 0.02 in Snow Light Snow
3:43 AM 28.4 °F 17.0 °F 26.6 °F 93% 29.73 in 0.5 mi SW 15.0 mph - 0.02 in Fog , Snow Snow
3:50 AM 28.4 °F 18.5 °F 28.4 °F 100% 29.73 in 0.2 mi SW 11.5 mph - 0.04 in Fog , Snow Heavy Snow
3:57 AM 28.9 °F 19.2 °F 28.0 °F 96% 29.70 in 0.2 mi SW 11.5 mph - 0.07 in Fog , Snow Snow
3:59 AM 28.4 °F 19.7 °F 28.4 °F 100% 29.73 in 0.5 mi West 9.2 mph - 0.00 in Fog , Snow Snow
4:14 AM 28.4 °F 18.0 °F 26.6 °F 93% 29.73 in 2.5 mi WSW 12.7 mph 24.2 mph 0.01 in Snow Light Snow
4:17 AM 28.4 °F 17.5 °F 26.6 °F 93% 29.73 in 5.0 mi WSW 13.8 mph 24.2 mph 0.01 in Snow Light Snow
4:26 AM 30.2 °F 17.1 °F 26.6 °F 86% 29.74 in 8.0 mi SW 21.9 mph 32.2 mph 0.01 in Snow Light Snow
4:47 AM 28.4 °F 15.1 °F 24.8 °F 86% 29.74 in 9.0 mi SW 20.7 mph 32.2 mph 0.01 in   Overcast
4:57 AM 28.9 °F 17.7 °F 26.1 °F 89% 29.70 in 7.0 mi SW 15.0 mph 28.8 mph 0.01 in   Overcast
5:15 AM 28.4 °F 20.4 °F 26.6 °F 93% 29.75 in 1.8 mi WSW 8.1 mph - 0.00 in Snow Light Snow
5:18 AM 28.4 °F 19.7 °F 26.6 °F 93% 29.75 in 1.2 mi WSW 9.2 mph - 0.00 in Snow Light Snow
5:33 AM 28.4 °F 19.7 °F 26.6 °F 93% 29.75 in 3.0 mi WSW 9.2 mph - 0.01 in Snow Light Snow
5:44 AM 28.4 °F 19.7 °F 24.8 °F 86% 29.74 in 8.0 mi WSW 9.2 mph - 0.01 in Snow Light Snow
5:57 AM 28.0 °F 18.6 °F 24.1 °F 85% 29.70 in 10.0 mi WSW 10.4 mph 16.1 mph 0.01 in   Overcast
6:17 AM 26.6 °F 16.8 °F 23.0 °F 86% 29.73 in 9.0 mi West 10.4 mph 23.0 mph 0.00 in Snow Light Snow
6:57 AM 27.0 °F 18.7 °F 21.9 °F 81% 29.72 in 6.0 mi WSW 8.1 mph - 0.00 in Snow Light Snow
7:49 AM 26.6 °F 17.5 °F 21.2 °F 80% 29.78 in 6.0 mi WSW 9.2 mph - 0.00 in   Haze
7:57 AM 26.1 °F 17.6 °F 21.0 °F 81% 29.77 in 6.0 mi WSW 8.1 mph 16.1 mph 0.00 in   Haze
8:30 AM 26.6 °F 19.1 °F 21.2 °F 80% 29.79 in 10.0 mi WSW 6.9 mph - N/A   Mostly Cloudy
8:57 AM 26.1 °F 16.2 °F 21.0 °F 81% 29.78 in 10.0 mi SSW 10.4 mph - N/A   Scattered Clouds
9:06 AM 26.6 °F 16.8 °F 21.2 °F 80% 29.80 in 10.0 mi SW 10.4 mph - N/A   Mostly Cloudy
9:57 AM 28.0 °F 18.1 °F 18.0 °F 66% 29.76 in 10.0 mi SW 11.5 mph 18.4 mph N/A   Mostly Cloudy
10:04 AM 28.4 °F 18.5 °F 19.4 °F 69% 29.79 in 10.0 mi SW 11.5 mph 18.4 mph N/A   Mostly Cloudy
10:57 AM 28.9 °F 21.1 °F 15.1 °F 56% 29.78 in 10.0 mi SW 8.1 mph - N/A   Overcast
11:57 AM 30.0 °F 22.4 °F 18.0 °F 61% 29.77 in 10.0 mi West 8.1 mph - 0.00 in   Overcast
12:57 PM 30.0 °F 20.0 °F 17.1 °F 59% 29.75 in 10.0 mi SSW 12.7 mph - 0.00 in   Mostly Cloudy
1:57 PM 30.9 °F 23.5 °F 15.1 °F 52% 29.73 in 10.0 mi SW 8.1 mph - N/A   Partly Cloudy
2:57 PM 34.0 °F 27.2 °F 14.0 °F 44% 29.72 in 10.0 mi West 8.1 mph - N/A   Overcast
3:57 PM 30.9 °F 26.2 °F 19.9 °F 64% 29.76 in 10.0 mi NW 4.6 mph - 0.00 in   Overcast
4:57 PM 28.0 °F 17.5 °F 21.0 °F 75% 29.80 in 8.0 mi SW 12.7 mph - 0.00 in   Overcast
5:01 PM 26.6 °F 16.2 °F 23.0 °F 86% 29.82 in 2.0 mi SSW 11.5 mph - 0.00 in Snow Light Snow
5:04 PM 26.6 °F 15.7 °F 24.8 °F 93% 29.82 in 0.8 mi SW 12.7 mph - 0.00 in Snow Light Snow
5:10 PM 26.6 °F 17.5 °F 24.8 °F 93% 29.82 in 0.2 mi SW 9.2 mph - 0.00 in Fog , Snow Snow
5:15 PM 26.6 °F 19.1 °F 24.8 °F 93% 29.83 in 0.5 mi SW 6.9 mph - 0.01 in Fog , Snow Snow
5:18 PM 26.6 °F 16.8 °F 24.8 °F 93% 29.83 in 0.5 mi SW 10.4 mph - 0.01 in Fog , Snow Light Snow
5:28 PM 26.6 °F 17.5 °F 24.8 °F 93% 29.83 in 0.2 mi SW 9.2 mph - 0.02 in Fog , Snow Snow
5:35 PM 24.8 °F 16.1 °F 24.8 °F 100% 29.84 in 0.2 mi WSW 8.1 mph - 0.03 in Fog , Snow Heavy Snow
5:44 PM 24.8 °F 19.1 °F 24.8 °F 100% 29.84 in 0.2 mi WSW 4.6 mph - 0.04 in Fog , Snow Heavy Snow
5:57 PM 25.0 °F 18.1 °F 24.1 °F 96% 29.85 in 0.2 mi SW 5.8 mph - 0.09 in Fog , Snow Heavy Snow
6:18 PM 24.8 °F 16.9 °F 24.8 °F 100% 29.85 in 0.2 mi SW 6.9 mph - 0.04 in Fog , Snow Heavy Snow
6:25 PM 24.8 °F 16.9 °F 24.8 °F 100% 29.85 in 0.5 mi SW 6.9 mph - 0.05 in Fog , Snow Snow
6:28 PM 24.8 °F 16.9 °F 24.8 °F 100% 29.85 in 1.0 mi SW 6.9 mph - 0.05 in Snow Light Snow
6:32 PM 24.8 °F 16.1 °F 23.0 °F 93% 29.85 in 3.0 mi SW 8.1 mph - 0.05 in Snow Light Snow
6:57 PM 21.9 °F 11.7 °F 19.9 °F 92% 29.88 in 10.0 mi SW 9.2 mph - 0.05 in   Scattered Clouds
7:12 PM 24.8 °F 16.9 °F 23.0 °F 93% 29.87 in 2.0 mi SW 6.9 mph - 0.00 in Snow Light Snow
7:17 PM 26.6 °F 22.6 °F 24.8 °F 93% 29.87 in 0.8 mi WSW 3.5 mph - 0.00 in Snow Light Snow
7:29 PM 24.8 °F 15.3 °F 24.8 °F 100% 29.87 in 0.2 mi SW 9.2 mph - 0.03 in Fog , Snow Snow
7:36 PM 24.8 °F 15.3 °F 23.0 °F 93% 29.88 in 1.0 mi SW 9.2 mph - 0.03 in Snow Light Snow
7:40 PM 24.8 °F 16.1 °F 23.0 °F 93% 29.88 in 3.0 mi SW 8.1 mph - 0.03 in Snow Light Snow
7:57 PM 26.1 °F 17.6 °F 24.1 °F 92% 29.90 in 8.0 mi SW 8.1 mph - 0.03 in   Overcast
8:04 PM 26.6 °F 19.1 °F 24.8 °F 93% 29.88 in 10.0 mi SW 6.9 mph - N/A   Overcast
8:34 PM 26.6 °F 21.2 °F 23.0 °F 86% 29.89 in 8.0 mi SW 4.6 mph - 0.00 in Snow Light Snow
8:57 PM 26.1 °F 19.4 °F 23.0 °F 88% 29.92 in 10.0 mi WSW 5.8 mph - 0.00 in   Overcast
9:57 PM 25.0 °F 18.1 °F 21.9 °F 88% 29.93 in 10.0 mi WSW 5.8 mph - N/A   Overcast
10:57 PM 25.0 °F 19.3 °F 21.9 °F 88% 29.94 in 9.0 mi West 4.6 mph - 0.00 in Snow Light Snow
11:14 PM 24.8 °F 17.9 °F 21.2 °F 86% 29.93 in 10.0 mi West 5.8 mph - 0.00 in   Overcast
11:22 PM 24.8 °F 16.9 °F 21.2 °F 86% 29.93 in 10.0 mi WSW 6.9 mph - 0.00 in   Overcast
11:57 PM 23.0 °F 14.7 °F 19.0 °F 85% 29.92 in 10.0 mi SW 6.9 mph - 0.00 in   Mostly Cloudy